TimeEST,TemperatureF,Dew PointF,Humidity,Sea Level PressureIn,VisibilityMPH,Wind Direction,Wind SpeedMPH,Gust SpeedMPH,PrecipitationIn,Events,Conditions,WindDirDegrees,DateUTC
12:53 AM,53.1,52.0,96,29.89,5.0,SSE,4.6,-,0.08,Rain,Rain,150,2012-12-17 05:53:00
1:43 AM,53.6,51.8,94,29.87,5.0,South,8.1,-,0.03,Rain,Light Rain,170,2012-12-17 06:43:00
1:53 AM,53.1,51.1,93,29.86,6.0,South,9.2,-,0.03,Rain,Light Rain,180,2012-12-17 06:53:00
2:41 AM,53.6,51.8,94,29.80,1.8,SSE,10.4,-,0.00,Rain,Light Rain,150,2012-12-17 07:41:00
2:46 AM,53.6,51.8,94,29.80,3.0,SSE,9.2,-,0.00,Rain,Light Rain,160,2012-12-17 07:46:00
2:53 AM,53.1,52.0,96,29.81,7.0,South,6.9,-,0.00,,Overcast,170,2012-12-17 07:53:00
3:53 AM,53.1,51.1,93,29.86,9.0,NNW,4.6,-,N/A,,Overcast,330,2012-12-17 08:53:00
4:18 AM,53.6,51.8,94,29.86,9.0,WNW,4.6,-,N/A,,Overcast,290,2012-12-17 09:18:00
4:40 AM,53.6,51.8,94,29.85,10.0,WNW,4.6,-,N/A,,Overcast,300,2012-12-17 09:40:00
4:53 AM,53.1,51.1,93,29.85,10.0,West,5.8,-,N/A,,Overcast,270,2012-12-17 09:53:00
5:53 AM,53.1,51.1,93,29.86,10.0,West,5.8,-,N/A,,Overcast,270,2012-12-17 10:53:00
6:53 AM,53.1,51.1,93,29.86,10.0,WSW,6.9,-,N/A,,Overcast,250,2012-12-17 11:53:00
7:21 AM,53.6,51.8,94,29.86,10.0,WSW,5.8,-,N/A,,Scattered Clouds,240,2012-12-17 12:21:00
7:53 AM,53.1,51.1,93,29.85,10.0,SW,4.6,-,N/A,,Clear,220,2012-12-17 12:53:00
8:53 AM,53.1,51.1,93,29.87,10.0,SW,5.8,-,0.01,,Mostly Cloudy,220,2012-12-17 13:53:00
9:28 AM,53.6,51.8,94,29.87,10.0,SSW,4.6,-,N/A,,Overcast,210,2012-12-17 14:28:00
9:53 AM,53.1,51.1,93,29.87,10.0,SW,3.5,-,N/A,,Overcast,220,2012-12-17 14:53:00
10:53 AM,54.0,52.0,93,29.84,5.0,South,3.5,-,0.02,Rain,Rain,190,2012-12-17 15:53:00
11:16 AM,53.6,51.8,94,29.84,8.0,SW,5.8,-,0.01,Rain,Light Rain,220,2012-12-17 16:16:00
11:29 AM,53.6,51.8,94,29.83,7.0,SSW,4.6,-,0.01,,Overcast,200,2012-12-17 16:29:00
11:53 AM,54.0,52.0,93,29.82,9.0,SW,5.8,-,0.01,,Overcast,220,2012-12-17 16:53:00
12:53 PM,55.0,53.1,93,29.80,8.0,WSW,6.9,-,N/A,,Overcast,240,2012-12-17 17:53:00
1:51 PM,55.4,53.6,94,29.77,6.0,South,5.8,-,N/A,,Overcast,190,2012-12-17 18:51:00
1:53 PM,55.0,53.1,93,29.77,6.0,SSW,5.8,-,N/A,,Overcast,200,2012-12-17 18:53:00
2:53 PM,55.9,54.0,93,29.73,7.0,SSW,10.4,-,N/A,,Overcast,210,2012-12-17 19:53:00
3:53 PM,55.9,54.0,93,29.71,7.0,SSW,6.9,-,N/A,,Overcast,210,2012-12-17 20:53:00
4:21 PM,55.4,53.6,94,29.71,7.0,SSW,8.1,-,N/A,,Overcast,200,2012-12-17 21:21:00
4:53 PM,55.9,54.0,93,29.70,4.0,SSW,9.2,-,N/A,,Overcast,200,2012-12-17 21:53:00
7:53 PM,57.0,54.0,89,29.71,9.0,SW,9.2,-,N/A,,Overcast,230,2012-12-18 00:53:00
8:53 PM,57.0,54.0,89,29.71,10.0,WSW,9.2,-,N/A,,Overcast,240,2012-12-18 01:53:00
9:05 PM,57.2,53.6,88,29.71,10.0,WSW,11.5,-,N/A,,Overcast,240,2012-12-18 02:05:00
9:53 PM,57.0,54.0,89,29.71,10.0,WSW,11.5,-,N/A,,Overcast,250,2012-12-18 02:53:00
10:23 PM,57.2,53.6,88,29.71,10.0,WSW,11.5,-,N/A,,Overcast,240,2012-12-18 03:23:00
10:29 PM,57.2,53.6,88,29.71,10.0,WSW,12.7,-,N/A,,Overcast,240,2012-12-18 03:29:00
10:36 PM,57.2,53.6,88,29.71,10.0,WSW,11.5,-,N/A,,Overcast,250,2012-12-18 03:36:00
10:45 PM,55.4,53.6,94,29.72,10.0,WSW,11.5,-,N/A,,Overcast,240,2012-12-18 03:45:00
10:53 PM,57.0,53.1,87,29.71,10.0,WSW,11.5,19.6,N/A,,Overcast,240,2012-12-18 03:53:00
11:53 PM,55.9,53.1,90,29.72,10.0,WSW,13.8,18.4,N/A,,Overcast,240,2012-12-18 04:53:00